[[{"header":{"parameterUnit":"m.s-1","parameterCategory":1,"la1":30.2991,"la2":30.254,"lo1":-89.0895,"lo2":-89.0444,"dy":0.0017,"dx":0.0017,"nx":28,"ny":28,"refTime":"2025-03-15T09:00:00:Z","depth":0,"parameterNumber":2,"parameterNumberName":"U-component_of_WINDS"},"data":[0,0,0,0,0,0,0,0,0,0,0,0,0,0,0,0,0,0,0,0,0,0,0,0,0,0,0,0,0,0,0,0,0,0,0,0,0,0,0,0,0,0,0,0,0,0,0,0,0,0,0,0,0,0,0,0,0,0,-4.9511,-4.9512,0,-4.963,-4.9632,-4.9633,-4.9647,-4.9645,-4.9644,-4.9643,-4.9764,-4.9768,-4.9772,0,0,0,0,0,0,0,0,0,0,0,0,0,-4.9294,-4.9298,-4.9511,-4.9512,-4.9514,-4.963,-4.9632,-4.9633,-4.9647,-4.9645,-4.9644,-4.9643,-4.9762,-4.9767,-4.9772,0,0,0,0,0,0,0,0,0,0,0,0,0,-4.9398,-4.9299,-4.9511,-4.9535,-4.9538,-4.963,-4.9632,-4.9634,-4.9647,-4.9645,-4.9644,-4.9642,-4.976,-4.9767,-4.9773,-4.9849,0,0,-4.9793,-4.9796,0,0,0,0,0,0,0,0,-4.9392,-4.9406,-4.953,-4.9533,-4.9537,-4.9622,-4.9599,-4.9706,-4.9648,-4.9606,-4.9643,-4.9641,-4.9718,-4.9728,-4.9754,-4.9854,-4.9859,-4.9793,-4.9797,-4.98,-4.9802,0,0,0,0,0,0,0,-4.9385,-4.9401,-4.9558,-4.9531,-4.9536,-4.9539,-4.9552,-4.962,-4.967,-4.9609,-4.961,-4.9624,-4.9719,-4.9748,-4.9757,-4.9861,-4.9793,-4.9799,-4.9803,-4.9806,-5.003,-5.0032,0,0,0,0,0,0,-4.9374,-4.9395,-4.9554,-4.9562,-4.9459,-4.9545,-4.9559,-4.9596,-4.9669,-4.9679,-4.9626,-4.9625,-4.9737,-4.9749,-4.9761,-4.9854,-4.98,-4.9806,-4.981,-5.0028,-5.0031,-5.0033,0,0,0,0,0,0,-4.9369,-4.9388,-4.9549,-4.9479,-4.95,-4.955,-4.9592,-4.96,-4.9628,-4.9682,-4.9691,-4.9645,-4.9736,-4.9752,-4.9827,-4.9858,-4.9809,-4.9815,-5.0026,-5.0029,-5.0032,-5.004,0,0,0,0,0,0,-4.9363,-4.9386,-4.9415,-4.9479,-4.9503,-4.9613,-4.9594,-4.9603,-4.9639,-4.9639,-4.9703,-4.9712,-4.9736,-4.9817,-4.9833,-4.9866,-4.982,-5.0023,-5.0027,-5.0031,-5.0037,-5.0043,-5.0048,0,0,0,0,0,-4.9355,-4.9412,-4.9416,-4.9435,-4.9541,-4.9615,-4.9629,-4.9657,-4.9642,-4.9671,-4.9706,-4.971,-4.9853,-4.9825,-4.9843,-4.9878,-5.0021,-5.0026,-5.0031,-5.0035,-5.0042,-5.0048,0,0,0,0,0,0,-4.9349,-4.9421,-4.9426,-4.9506,-4.9555,-4.9617,-4.9655,-4.9663,-4.9716,-4.9713,-4.9745,-4.976,-4.9833,-4.9864,-4.9831,-4.9956,-4.9936,-4.9944,-4.9932,-4.994,-4.9945,-4.9935,-4.9825,0,0,0,0,0,-4.9357,-4.9412,-4.9472,-4.9537,-4.9561,-4.9604,-4.9637,-4.9655,-4.9706,-4.9726,-4.9767,-4.9816,-4.9872,-4.9908,-4.9963,-5.0043,-5.0057,-5.0076,-5.0082,-5.0086,-5.0092,-5.0137,-5.0146,-5.0048,-5.0048,-5.0048,0,0,-4.9374,-4.942,-4.9453,-4.9537,-4.9576,-4.9632,-4.9621,-4.968,-4.9721,-4.9735,-4.9808,-4.984,-4.9897,-4.9975,-5.0011,-5.0002,-5.0123,-5.0092,-5.0095,-5.0099,-5.0143,-5.0152,-5.016,-5.0052,-5.0051,-5.0051,0,0,-4.9433,-4.9474,-4.9532,-4.9573,-4.9633,-4.9662,-4.9676,-4.9739,-4.976,-4.9835,-4.9846,-4.9896,-4.9992,-5.0032,-5.0065,-5.0142,-5.0147,-5.0159,-5.0187,-5.023,-5.0238,-5.0244,-5.0271,-5.028,-5.0166,-5.0166,-5.0166,0,-4.9446,-4.9531,-4.9561,-4.962,-4.9657,-4.9673,-4.9732,-4.977,-4.9845,-4.987,-4.9859,-4.9981,-5.0021,-5.0108,-5.0127,-5.0154,-5.017,-5.0151,-5.0234,-5.0241,-5.0248,-5.0274,-5.0284,-5.0167,-5.0167,-5.0167,-5.0167,0,-4.9544,-4.9602,-4.9642,-4.9715,-4.9756,-4.9815,-4.9854,-4.9893,-4.9907,-4.9937,-5.0013,-5.0062,-5.0126,-5.0149,-5.0164,-5.0239,-5.0232,-5.0228,-5.0208,-5.0258,-5.0282,-5.0292,-5.0168,-5.0168,-5.0168,-5.0167,0,0,-4.9599,-4.969,-4.9704,-4.9737,-4.9806,-4.9852,-4.9912,-4.9976,-5.0008,-5.006,-5.0111,-5.0193,-5.019,-5.0227,-5.0247,-5.0285,-5.0342,-5.0277,-5.0278,-5.0286,-5.0427,-5.0428,-5.0439,-5.0347,-5.0349,-5.0351,-5.0422,0,-4.9665,-4.9772,-4.9802,-4.9893,-4.9947,-4.9965,-5.0017,-5.0065,-5.0096,-5.0146,-5.018,-5.0237,-5.0229,-5.0252,-5.0291,-5.0327,-5.0371,-5.0323,-5.0393,-5.0395,-5.0376,-5.0452,-5.0453,-5.0518,-5.0432,-5.0434,-5.0435,0,-4.9755,-4.981,-4.9906,-4.9968,-4.9992,-5.0039,-5.01,-5.0149,-5.0204,-5.0223,-5.0266,-5.0283,-5.0346,-5.0325,-5.0413,-5.0379,-5.0411,-5.0433,-5.0436,-5.0442,-5.0416,-5.0458,-5.054,-5.0549,-5.045,-5.0449,-5.0448,0,-4.9785,-4.9882,-4.9952,-4.998,-5.0056,-5.0088,-5.0121,-5.0174,-5.0211,-5.0266,-5.029,-5.0351,-5.0384,-5.0431,-5.0463,-5.0445,-5.0548,-5.0529,-5.0565,-5.0564,-5.0583,-5.0581,-5.0669,-5.0607,-5.0607,-5.0607,-5.0606,0,-4.9853,-4.9911,-4.9966,-5.0009,-5.0074,-5.0109,-5.0173,-5.0207,-5.0255,-5.0304,-5.0324,-5.037,-5.0412,-5.0463,-5.049,-5.0558,-5.0573,-5.059,-5.0596,-5.0587,-5.0584,-5.0606,-5.0601,-5.0609,-5.0609,-5.0608,-5.0608,0,-4.9896,-4.9936,-5.0013,-5.0079,-5.0096,-5.0142,-5.0198,-5.024,-5.0272,-5.0335,-5.0351,-5.0401,-5.0463,-5.0502,-5.058,-5.0598,-5.0672,-5.0678,-5.0654,-5.0656,-5.0689,-5.0684,-5.0792,-5.0807,-5.0736,-5.0737,-5.0738,0,-4.9936,-4.9981,-5.0052,-5.0087,-5.012,-5.0176,-5.0214,-5.0251,-5.029,-5.0357,-5.0392,-5.0455,-5.0508,-5.0606,-5.0649,-5.071,-5.0716,-5.0749,-5.0724,-5.0714,-5.0714,-5.071,-5.0715,-5.0752,-5.0753,-5.0753,-5.0754,0,-5.0003,-5.0021,-5.0075,-5.0137,-5.0182,-5.0233,-5.0283,-5.031,-5.0356,-5.0398,-5.0463,-5.0504,-5.0585,-5.0647,-5.0712,-5.0746,-5.0757,-5.0762,-5.0773,-5.0763,-5.0747,-5.0754,-5.0663,-5.0758,-5.0758,-5.0757,-5.0757,-5.0757,-5.0045,-5.0085,-5.0142,-5.0202,-5.0244,-5.0291,-5.0334,-5.0372,-5.0426,-5.0495,-5.0514,-5.0581,-5.0636,-5.0724,-5.0759,-5.0812,-5.0807,-5.0824,-5.0827,-5.083,-5.083,-5.074,-5.0824,-5.0824,-5.0824,-5.0824,-5.0824,0,-5.0111,-5.0149,-5.0204,-5.0274,-5.0321,-5.033,-5.0386,-5.0425,-5.0484,-5.0535,-5.0587,-5.066,-5.0722,-5.0771,-5.0834,-5.0867,-5.0874,-5.0882,-5.0879,-5.0886,-5.0832,-5.0815,-5.0876,-5.0875,-5.0875,-5.0875,-5.0875,-5.0875,-5.0151,-5.022,-5.0245,-5.0335,-5.0373,-5.0439,-5.047,-5.0513,-5.0554,-5.0636,-5.0687,-5.0719,-5.0769,-5.0837,-5.0893,-5.0906,-5.0928,-5.0935,-5.0949,-5.0896,-5.089,-5.0885,-5.0869,-5.094,-5.094,-5.0999,-5.0999,-5.0999]},{"header":{"parameterUnit":"m.s-1","parameterCategory":1,"la1":30.2991,"la2":30.254,"lo1":-89.0895,"lo2":-89.0444,"dy":0.0017,"dx":0.0017,"nx":28,"ny":28,"refTime":"2025-03-15T09:00:00:Z","depth":0,"parameterNumber":3,"parameterNumberName":"V-component_of_WINDS"},"data":[0,0,0,0,0,0,0,0,0,0,0,0,0,0,0,0,0,0,0,0,0,0,0,0,0,0,0,0,0,0,0,0,0,0,0,0,0,0,0,0,0,0,0,0,0,0,0,0,0,0,0,0,0,0,0,0,0,0,5.9146,5.9146,0,5.9218,5.9219,5.9219,5.9202,5.9201,5.92,5.9198,5.9269,5.9272,5.9275,0,0,0,0,0,0,0,0,0,0,0,0,0,5.8992,5.8995,5.9146,5.9146,5.9147,5.9218,5.9219,5.922,5.9203,5.9201,5.9199,5.9198,5.9268,5.9271,5.9275,0,0,0,0,0,0,0,0,0,0,0,0,0,5.9061,5.8995,5.9145,5.9147,5.9148,5.9217,5.9219,5.922,5.9203,5.9201,5.9199,5.9197,5.9266,5.9271,5.9276,5.9346,0,0,5.929,5.9292,0,0,0,0,0,0,0,0,5.9057,5.9066,5.9146,5.9147,5.9149,5.9199,5.919,5.9262,5.9204,5.9182,5.9198,5.9196,5.9247,5.9253,5.9271,5.9349,5.9352,5.9291,5.9293,5.9295,5.9297,0,0,0,0,0,0,0,5.9052,5.9063,5.9174,5.9147,5.9149,5.9144,5.9152,5.9204,5.9225,5.9184,5.9183,5.9192,5.9247,5.9267,5.9273,5.9353,5.929,5.9295,5.9298,5.9299,5.9497,5.9499,0,0,0,0,0,0,5.9046,5.9059,5.9172,5.9176,5.9097,5.9149,5.9157,5.9185,5.9225,5.9229,5.9193,5.9191,5.926,5.9267,5.9275,5.9363,5.9295,5.93,5.9303,5.9494,5.9497,5.95,0,0,0,0,0,0,5.9043,5.9057,5.9169,5.9118,5.9131,5.9154,5.9185,5.9187,5.9207,5.9232,5.9235,5.921,5.9258,5.9268,5.933,5.9365,5.9302,5.9306,5.9491,5.9495,5.9498,5.9537,0,0,0,0,0,0,5.9039,5.9056,5.9083,5.9118,5.9134,5.9223,5.9187,5.919,5.9216,5.9213,5.9248,5.9252,5.9257,5.9323,5.9334,5.937,5.931,5.9488,5.9493,5.9497,5.9533,5.9542,5.9549,0,0,0,0,0,5.9033,5.9089,5.9084,5.9098,5.9169,5.9225,5.9234,5.924,5.9218,5.9246,5.9263,5.9251,5.9359,5.9329,5.9342,5.938,5.9486,5.9492,5.9497,5.9529,5.954,5.9549,0,0,0,0,0,0,5.9055,5.9094,5.9089,5.9158,5.9188,5.9222,5.9257,5.9251,5.9287,5.9283,5.9288,5.9296,5.936,5.9375,5.9342,5.9452,5.9419,5.9428,5.9439,5.945,5.9458,5.9453,5.9314,0,0,0,0,0,5.9068,5.9111,5.9142,5.92,5.9216,5.9234,5.9258,5.9261,5.9293,5.9305,5.9326,5.9356,5.9397,5.9424,5.9463,5.9535,5.9543,5.9567,5.9575,5.9582,5.959,5.9632,5.9643,5.9517,5.9517,5.9517,0,0,5.9095,5.9122,5.9148,5.9205,5.9229,5.9274,5.9245,5.9292,5.9326,5.9312,5.9372,5.9389,5.9423,5.9491,5.9521,5.9506,5.9626,5.9589,5.9594,5.9598,5.9638,5.965,5.9661,5.9521,5.952,5.952,0,0,5.9168,5.9191,5.9244,5.927,5.9307,5.9319,5.9332,5.9367,5.9378,5.9439,5.9431,5.947,5.954,5.9566,5.9588,5.9674,5.9665,5.9686,5.9729,5.977,5.978,5.9789,5.9822,5.9833,5.9693,5.9693,5.9693,0,5.9196,5.9264,5.9271,5.9321,5.9347,5.9339,5.9393,5.9417,5.9464,5.9483,5.9465,5.9555,5.9577,5.9652,5.9674,5.9691,5.9707,5.9682,5.9778,5.9787,5.9795,5.9827,5.9839,5.9695,5.9695,5.9695,5.9695,0,5.9299,5.9346,5.9384,5.9433,5.9463,5.9515,5.953,5.9559,5.956,5.9574,5.9637,5.9664,5.971,5.9727,5.9727,5.9804,5.9793,5.9776,5.9744,5.981,5.984,5.9852,5.9699,5.9698,5.9697,5.9697,0,0,5.9386,5.9441,5.9455,5.9479,5.9521,5.9558,5.9609,5.9656,5.9682,5.9716,5.976,5.9821,5.9807,5.9832,5.9835,5.9871,5.9941,5.985,5.9851,5.9868,6.0029,6.0043,6.0057,5.9935,5.9937,5.9939,6.0028,0,5.9465,5.9558,5.9567,5.9649,5.9695,5.9688,5.9733,5.9764,5.9779,5.9819,5.9835,5.9879,5.9856,5.9872,5.9907,5.9925,5.9973,5.9918,5.9977,5.9979,5.9971,6.0072,6.0087,6.0169,6.0039,6.0041,6.0042,0,5.9568,5.9608,5.9697,5.9736,5.9755,5.9795,5.9841,5.9878,5.9914,5.9922,5.9952,5.9951,6.0005,5.997,6.0045,6.0007,6.0032,6.0044,6.0048,6.0055,6.0016,6.0084,6.0195,6.0208,6.006,6.0059,6.0057,0,5.9627,5.9702,5.9766,5.9786,5.9832,5.9861,5.9882,5.9915,5.9944,5.9982,6.0001,6.0045,6.007,6.0104,6.0115,6.0088,6.019,6.0155,6.02,6.02,6.0223,6.0221,6.0341,6.0235,6.0235,6.0235,6.0234,0,5.9715,5.977,5.9793,5.9832,5.9894,5.9904,5.9965,5.9983,6.0014,6.0057,6.0052,6.0093,6.0104,6.0146,6.0155,6.0217,6.0227,6.0237,6.0239,6.0238,6.0238,6.0256,6.0251,6.0238,6.0237,6.0236,6.0236,0,5.9791,5.9809,5.9878,5.9917,5.9929,5.9973,6.0006,6.0044,6.0059,6.0114,6.0127,6.015,6.02,6.0214,6.0273,6.0279,6.0353,6.0349,6.0342,6.0343,6.0387,6.0384,6.0525,6.0545,6.0423,6.0424,6.0425,0,5.9847,5.989,5.9935,5.9964,5.9987,6.0033,6.0063,6.0075,6.0106,6.0151,6.0184,6.0234,6.0275,6.0355,6.0377,6.0423,6.0421,6.0467,6.0428,6.0427,6.0425,6.0423,6.0428,6.0475,6.0476,6.0477,6.0478,0,5.9946,5.9953,5.9997,6.0046,6.0082,6.012,6.0156,6.018,6.0197,6.0232,6.0285,6.0316,6.0379,6.0429,6.0476,6.0496,6.0491,6.049,6.0503,6.0505,6.05,6.0506,6.0365,6.0487,6.0486,6.0486,6.0485,6.0485,6.0015,6.0054,6.0093,6.0143,6.0172,6.0207,6.0246,6.0267,6.0311,6.0364,6.0367,6.0425,6.0461,6.0524,6.0547,6.0592,6.0579,6.0597,6.0602,6.0607,6.0612,6.0492,6.06,6.06,6.06,6.06,6.0599,0,6.0116,6.0141,6.0187,6.024,6.028,6.0272,6.0312,6.0346,6.0397,6.0432,6.0473,6.0535,6.0584,6.061,6.066,6.0691,6.069,6.0703,6.0702,6.0708,6.062,6.0605,6.0704,6.0704,6.0704,6.0704,6.0704,6.0704,6.0173,6.024,6.0252,6.0334,6.0358,6.0416,6.044,6.0472,6.0501,6.057,6.0612,6.0629,6.0662,6.0714,6.0759,6.0765,6.0785,6.0801,6.0806,6.0724,6.0713,6.0703,6.0689,6.0804,6.0804,6.089,6.0891,6.0891]}]]